Regional Weather Roundup
Issued by NWS

Home | Current Version | Previous Version | Graphics & Text | Print | Product List | Glossary On
Versions: 1 2 3 4 5 6 7 8 9 10 11 12 13 14 15 16 17 18 19 20 21 22 23 24 25 26 27 28 29 30 31 32 33 34 35 36 37 38 39 40 41 42 43 44 45 46 47 48 49 50
110
ASUS45 KBOU 230407
RWRCO

WEATHER ROUNDUP FOR COLORADO
NATIONAL WEATHER SERVICE DENVER/BOULDER CO
900 PM MST SUN JAN 22 2017

NOTE: "FAIR" INDICATES FEW OR NO CLOUDS BELOW 12000 FEET WITH NO
SIGNIFICANT WEATHER AND/OR OBSTRUCTIONS TO VISIBILITY.

COZ001>005-013-030-031-230500-
...NORTHWEST COLORADO...

CITY           SKY/WX    TMP DP  RH WIND       PRES   REMARKS
CRAIG          CLOUDY    27  20  75 E10       29.85F WCI  17
HAYDEN         CLOUDY    23  18  80 SE8       29.85F WCI  14
MEEKER         CLOUDY    26  24  92 NE6       29.86F WCI  19
MOUNT WERNER   NOT AVBL
STEAMBOAT SPGS CLOUDY    21  19  90 CALM      29.86F
WALDEN           N/A     23  14  68 SE14      29.83F WCI  11
$$

COZ006>008-011-230500-
...WEST CENTRAL VALLEYS...

CITY           SKY/WX    TMP DP  RH WIND       PRES   REMARKS
GRAND JUNCTION FLURRIES  33  29  85 SE10      29.95S WCI  25
MONTROSE       FLURRIES  29  28  96 W5        29.99F WCI  24
EAGLE          LGT SNOW  27  25  93 CALM      29.94F VSB 1
RIFLE          LGT SNOW  30  29  96 W6        29.94F FOG     WCI  24
DELTA          CLOUDY    33  28  82 NE6       30.00S WCI  28
NUCLA          LGT SNOW  30  28  93 CALM      30.02F
$$

COZ017>023-064>068-230500-
...SOUTHWEST COLORADO...

CITY           SKY/WX    TMP DP  RH WIND       PRES   REMARKS
DURANGO        CLOUDY    24  21  88 NE6       30.10S WCI  17
CORTEZ         CLOUDY    30  24  78 S10       30.06F WCI  21
PAGOSA SPRINGS LGT SNOW  24  23  98 CALM      30.07F
TELLURIDE      NOT AVBL
WOLF CREEK PAS CLOUDY     9   7  92 SW22G30   29.99F WCI -11
$$

COZ009-010-012-014-032>034-037-058>063-230500-
...CENTRAL COLORADO...

CITY           SKY/WX    TMP DP  RH WIND       PRES   REMARKS
ASPEN          LGT SNOW  23  20  88 CALM      29.87F FOG
BUENA VISTA    CLOUDY    27  14  59 SE13G18   29.92F WCI  16
COPPER MTN     LGT SNOW  19  14  79 MISG      29.84F
BERTHOUD PASS  CLOUDY    12   1  62 MISG      29.83F
COTTONWOOD PAS LGT SNOW  25  19  80 NW5       29.89F WCI  19
GUNNISON       LGT SNOW  19  17  92 N6        29.99F FOG     WCI  11
KREMMLING      CLOUDY    28  18  64 E6        29.91F WCI  22
LEADVILLE      LGT SNOW  16  13  88 CALM      29.86F FOG
MONARCH PASS   CLOUDY    10   5  79 SW23G33   29.99F WCI -10
SALIDA         CLOUDY    31  13  47 S17G24    30.01R WCI  19
SUNLIGHT       CLOUDY    14  12  92 S8G24     29.89F WCI   3
WILKERSON PASS CLOUDY    14   9  79 SW16G22   29.90F WCI  -2
$$

COZ069>075-230500-
...SAN LUIS VALLEY/SANGRE DE CRISTO MOUNTAINS...

CITY           SKY/WX    TMP DP  RH WIND       PRES   REMARKS
ALAMOSA        FAIR      14  10  84 SW8       30.01R WCI   3
LA VETA PASS   MOCLDY    18   9  68 NE32G40   29.92S WCI  -3
SAGUACHE       CLOUDY    23  16  74 CALM      30.00F
$$

COZ035-036-038>040-230500-
...NORTHERN COLORADO FRONT RANGE...

CITY           SKY/WX    TMP DP  RH WIND       PRES   REMARKS
DENVER INTL AP MOCLDY    32  17  54 SE12      29.82F WCI  23
DMNS CITY PARK   N/A     36  11  35 MISG      29.83S
AURORA         MOCLDY    35  14  41 S14       29.83S WCI  26
FRONT RANGE AP MOCLDY    32  19  59 SE12      29.84F WCI  23
ERIE MUNI ARPT FAIR      33  18  54 N3        29.84F
BOULDER MUN AP MOCLDY    34  18  51 N3        29.83F
CENTENNIAL     MOCLDY    33  16  49 S6        29.83S WCI  28
BROOMFIELD     PTCLDY    36  14  41 CALM      29.83F
FORT COLLINS   FAIR      34  14  44 S5        29.86S WCI  30
LONGMONT       FAIR      35  20  55 N5        29.86F WCI  31
$$

COZ041-046-047-076>085-087-088-230500-
...PIKES PEAK/PALMER DIVIDE AND SOUTHERN FOOTHILLS...

CITY           SKY/WX    TMP DP  RH WIND       PRES   REMARKS
COLO. SPRINGS  MOCLDY    31  14  49 E9        29.87F WCI  23
A. F. ACADEMY  FAIR      31  12  46 SE6       29.86S WCI  25
SCHRIEVER AFB  NOT AVBL
ELLICOTT       FAIR     N/A N/A N/A SE10      29.87S
FALCON         MOCLDY    29  13  52 SE3       29.88F
FORT CARSON    NOT AVBL
LIMON          FAIR      26  20  77 SE5       29.89S WCI  20
MONUMENT HILL  MOCLDY    30  12  47 S10       29.86F WCI  21
TRINIDAD       FAIR      23  14  68 NW8       29.90F WCI  14
$$

COZ042>045-048>051-090-091-230500-
...NORTHEAST COLORADO...

CITY           SKY/WX    TMP DP  RH WIND       PRES   REMARKS
GREELEY ARPT   NOT AVBL
AKRON          FAIR      33  13  43 E6        29.87F WCI  28
BURLINGTON     FAIR      29  22  75 SW10      29.92S WCI  20
WRAY           FAIR      28  23  80 W5        29.91F WCI  23
STERLING       FAIR      27  19  74 W3        29.87F
HOLYOKE        FAIR      28  23  80 W6        29.89F WCI  22
FORT MORGAN    FAIR      28  19  67 E7        29.85F WCI  21
$$

COZ086-089-092>099-230500-
...SOUTHEAST COLORADO...

CITY           SKY/WX    TMP DP  RH WIND       PRES   REMARKS
PUEBLO         FAIR      34  23  64 N3        29.87F
LA JUNTA       FAIR      37  20  50 S7        29.91S
LAMAR          FAIR      29  24  82 CALM      29.92F
SPRINGFIELD      N/A     20  17  88 SW6       29.92F WCI  12
$$




USA.gov is the U.S. government's official web portal to all federal, state and local government web resources and services.